Time,TemperatureF,DewpointF,PressureIn,WindDirection,WindDirectionDegrees,WindSpeedMPH,WindSpeedGustMPH,Humidity,HourlyPrecipIn,Conditions,Clouds,dailyrainin,SolarRadiationWatts/m^2,SoftwareType,DateUTC
2017-11-18 00:00:00,28.3,21.0,30.35,SW,226,2.0,5.0,73,0.00,,,0.00,0,weatherlink.com 1.10,2017-11-18 08:00:00,
2017-11-18 00:15:00,29.1,21.0,30.35,WSW,253,1.0,3.0,71,0.00,,,0.00,0,weatherlink.com 1.10,2017-11-18 08:15:00,
2017-11-18 00:30:00,29.4,20.0,30.35,WSW,253,1.0,2.0,69,0.00,,,0.00,0,weatherlink.com 1.10,2017-11-18 08:30:00,
2017-11-18 00:45:00,29.4,20.0,30.36,East,92,2.0,4.0,69,0.00,,,0.00,0,weatherlink.com 1.10,2017-11-18 08:45:00,
2017-11-18 01:01:00,28.9,20.0,30.36,NE,51,2.0,4.0,70,0.00,,,0.00,0,weatherlink.com 1.10,2017-11-18 09:01:00,
2017-11-18 01:15:00,29.7,21.0,30.36,ENE,59,9.0,10.0,69,0.00,,,0.00,0,weatherlink.com 1.10,2017-11-18 09:15:00,
2017-11-18 01:30:00,31.3,21.0,30.35,ENE,72,6.0,11.0,65,0.00,,,0.00,0,weatherlink.com 1.10,2017-11-18 09:30:00,
2017-11-18 01:46:00,31.7,20.0,30.35,NE,50,5.0,10.0,63,0.00,,,0.00,0,weatherlink.com 1.10,2017-11-18 09:46:00,
2017-11-18 02:01:00,31.7,20.0,30.36,NE,48,3.0,10.0,63,0.00,,,0.00,0,weatherlink.com 1.10,2017-11-18 10:01:00,
2017-11-18 02:16:00,29.9,20.0,30.36,SSW,198,1.0,3.0,67,0.00,,,0.00,0,weatherlink.com 1.10,2017-11-18 10:16:00,
2017-11-18 02:31:00,29.0,20.0,30.36,SSW,198,0.0,2.0,69,0.00,,,0.00,0,weatherlink.com 1.10,2017-11-18 10:31:00,
2017-11-18 02:46:00,29.2,20.0,30.36,ESE,102,0.0,4.0,69,0.00,,,0.00,0,weatherlink.com 1.10,2017-11-18 10:46:00,
2017-11-18 03:01:00,28.1,20.0,30.36,ESE,102,1.0,4.0,72,0.00,,,0.00,0,weatherlink.com 1.10,2017-11-18 11:01:00,
2017-11-18 03:16:00,28.3,20.0,30.36,SW,214,0.0,4.0,72,0.00,,,0.00,0,weatherlink.com 1.10,2017-11-18 11:16:00,
2017-11-18 03:31:00,28.6,20.0,30.36,ESE,103,2.0,3.0,71,0.00,,,0.00,0,weatherlink.com 1.10,2017-11-18 11:31:00,
2017-11-18 03:46:00,28.3,20.0,30.36,SW,230,2.0,3.0,71,0.00,,,0.00,0,weatherlink.com 1.10,2017-11-18 11:46:00,
2017-11-18 04:01:00,27.5,20.0,30.36,WNW,282,2.0,4.0,74,0.00,,,0.00,0,weatherlink.com 1.10,2017-11-18 12:01:00,
2017-11-18 04:16:00,27.1,20.0,30.37,West,262,2.0,5.0,75,0.00,,,0.00,0,weatherlink.com 1.10,2017-11-18 12:16:00,
2017-11-18 04:31:00,27.2,20.0,30.37,West,280,2.0,4.0,75,0.00,,,0.00,0,weatherlink.com 1.10,2017-11-18 12:31:00,
2017-11-18 04:46:00,26.2,20.0,30.37,West,273,4.0,6.0,77,0.00,,,0.00,0,weatherlink.com 1.10,2017-11-18 12:46:00,
2017-11-18 05:01:00,26.1,20.0,30.37,West,266,3.0,6.0,78,0.00,,,0.00,0,weatherlink.com 1.10,2017-11-18 13:01:00,
2017-11-18 05:16:00,26.4,20.0,30.38,WNW,286,5.0,5.0,76,0.00,,,0.00,0,weatherlink.com 1.10,2017-11-18 13:16:00,
2017-11-18 05:31:00,26.7,20.0,30.38,WNW,284,3.0,5.0,75,0.00,,,0.00,0,weatherlink.com 1.10,2017-11-18 13:31:00,
2017-11-18 05:46:00,26.1,20.0,30.38,WNW,291,4.0,6.0,76,0.00,,,0.00,0,weatherlink.com 1.10,2017-11-18 13:46:00,
2017-11-18 06:01:00,26.1,20.0,30.38,WNW,299,5.0,7.0,76,0.00,,,0.00,0,weatherlink.com 1.10,2017-11-18 14:01:00,
2017-11-18 06:16:00,26.0,20.0,30.39,WNW,295,5.0,9.0,77,0.00,,,0.00,0,weatherlink.com 1.10,2017-11-18 14:16:00,
2017-11-18 06:31:00,25.9,20.0,30.39,WNW,285,6.0,8.0,77,0.00,,,0.00,0,weatherlink.com 1.10,2017-11-18 14:31:00,
2017-11-18 06:46:00,25.7,20.0,30.39,West,265,5.0,8.0,78,0.00,,,0.00,5,weatherlink.com 1.10,2017-11-18 14:46:00,
2017-11-18 07:01:00,26.6,20.0,30.40,WNW,293,3.0,5.0,76,0.00,,,0.00,12,weatherlink.com 1.10,2017-11-18 15:01:00,
2017-11-18 07:16:00,24.6,19.0,30.40,West,279,4.0,6.0,80,0.00,,,0.00,25,weatherlink.com 1.10,2017-11-18 15:16:00,
2017-11-18 07:31:00,25.1,20.0,30.40,WNW,287,4.0,4.0,81,0.00,,,0.00,62,weatherlink.com 1.10,2017-11-18 15:31:00,
2017-11-18 07:46:00,26.0,20.0,30.40,West,263,5.0,6.0,79,0.00,,,0.00,114,weatherlink.com 1.10,2017-11-18 15:46:00,
2017-11-18 08:01:00,26.8,21.0,30.41,West,268,6.0,7.0,79,0.00,,,0.00,169,weatherlink.com 1.10,2017-11-18 16:01:00,
2017-11-18 08:16:00,27.5,21.0,30.41,SW,230,5.0,6.0,76,0.00,,,0.00,202,weatherlink.com 1.10,2017-11-18 16:16:00,
2017-11-18 08:32:00,28.1,21.0,30.41,SW,231,4.0,5.0,76,0.00,,,0.00,272,weatherlink.com 1.10,2017-11-18 16:32:00,
2017-11-18 08:47:00,28.4,21.0,30.41,SW,234,4.0,5.0,75,0.00,,,0.00,313,weatherlink.com 1.10,2017-11-18 16:47:00,
2017-11-18 09:02:00,29.1,22.0,30.41,SW,234,4.0,6.0,76,0.00,,,0.00,352,weatherlink.com 1.10,2017-11-18 17:02:00,
2017-11-18 09:17:00,29.7,22.0,30.41,SW,226,2.0,6.0,74,0.00,,,0.00,313,weatherlink.com 1.10,2017-11-18 17:17:00,
2017-11-18 09:32:00,31.0,24.0,30.41,South,184,2.0,5.0,75,0.00,,,0.00,422,weatherlink.com 1.10,2017-11-18 17:32:00,
2017-11-18 09:47:00,32.7,24.0,30.41,SSW,212,3.0,4.0,69,0.00,,,0.00,452,weatherlink.com 1.10,2017-11-18 17:47:00,
2017-11-18 10:02:00,33.6,24.0,30.41,SW,220,4.0,4.0,69,0.00,,,0.00,446,weatherlink.com 1.10,2017-11-18 18:02:00,
2017-11-18 10:17:00,34.0,25.0,30.41,SW,219,4.0,4.0,69,0.00,,,0.00,427,weatherlink.com 1.10,2017-11-18 18:17:00,
2017-11-18 10:32:00,35.7,26.0,30.41,ESE,120,1.0,5.0,67,0.00,,,0.00,417,weatherlink.com 1.10,2017-11-18 18:32:00,
2017-11-18 10:47:00,37.8,27.0,30.40,SSW,194,1.0,5.0,64,0.00,,,0.00,452,weatherlink.com 1.10,2017-11-18 18:47:00,
2017-11-18 11:02:00,38.2,26.0,30.39,ESE,120,3.0,7.0,61,0.00,,,0.00,515,weatherlink.com 1.10,2017-11-18 19:02:00,
2017-11-18 11:17:00,39.1,27.0,30.39,East,101,5.0,7.0,61,0.00,,,0.00,512,weatherlink.com 1.10,2017-11-18 19:17:00,
2017-11-18 11:32:00,40.4,26.0,30.38,East,81,5.0,7.0,58,0.00,,,0.00,571,weatherlink.com 1.10,2017-11-18 19:32:00,
2017-11-18 11:47:00,41.1,26.0,30.37,ESE,118,3.0,8.0,56,0.00,,,0.00,510,weatherlink.com 1.10,2017-11-18 19:47:00,
2017-11-18 12:02:00,40.6,25.0,30.36,West,272,2.0,4.0,55,0.00,,,0.00,374,weatherlink.com 1.10,2017-11-18 20:02:00,
2017-11-18 12:17:00,41.2,27.0,30.36,ESE,108,2.0,5.0,58,0.00,,,0.00,519,weatherlink.com 1.10,2017-11-18 20:17:00,
2017-11-18 12:32:00,42.3,28.0,30.35,ESE,116,6.0,7.0,57,0.00,,,0.00,561,weatherlink.com 1.10,2017-11-18 20:32:00,
2017-11-18 12:47:00,43.3,27.0,30.35,ENE,62,2.0,8.0,54,0.00,,,0.00,548,weatherlink.com 1.10,2017-11-18 20:47:00,
2017-11-18 13:03:00,44.4,28.0,30.34,ESE,103,3.0,9.0,53,0.00,,,0.00,529,weatherlink.com 1.10,2017-11-18 21:03:00,
2017-11-18 13:17:00,44.4,27.0,30.34,SE,144,1.0,9.0,51,0.00,,,0.00,508,weatherlink.com 1.10,2017-11-18 21:17:00,
2017-11-18 13:32:00,44.5,28.0,30.34,SSE,153,6.0,7.0,52,0.00,,,0.00,485,weatherlink.com 1.10,2017-11-18 21:32:00,
2017-11-18 13:47:00,44.7,29.0,30.33,SE,126,5.0,5.0,54,0.00,,,0.00,457,weatherlink.com 1.10,2017-11-18 21:47:00,
2017-11-18 14:02:00,45.5,28.0,30.32,ENE,78,2.0,7.0,51,0.00,,,0.00,425,weatherlink.com 1.10,2017-11-18 22:02:00,
2017-11-18 14:18:00,45.6,28.0,30.31,South,169,2.0,6.0,50,0.00,,,0.00,394,weatherlink.com 1.10,2017-11-18 22:18:00,
2017-11-18 14:33:00,46.0,28.0,30.31,ENE,68,3.0,7.0,50,0.00,,,0.00,367,weatherlink.com 1.10,2017-11-18 22:33:00,
2017-11-18 14:48:00,44.7,27.0,30.31,SE,129,3.0,5.0,51,0.00,,,0.00,158,weatherlink.com 1.10,2017-11-18 22:48:00,
2017-11-18 15:03:00,45.4,29.0,30.30,East,95,4.0,7.0,52,0.00,,,0.00,309,weatherlink.com 1.10,2017-11-18 23:03:00,
2017-11-18 15:18:00,45.9,29.0,30.30,ESE,116,2.0,5.0,51,0.00,,,0.00,221,weatherlink.com 1.10,2017-11-18 23:18:00,
2017-11-18 15:33:00,45.4,28.0,30.30,East,90,2.0,3.0,51,0.00,,,0.00,163,weatherlink.com 1.10,2017-11-18 23:33:00,
2017-11-18 15:48:00,44.0,27.0,30.30,East,98,3.0,3.0,52,0.00,,,0.00,33,weatherlink.com 1.10,2017-11-18 23:48:00,
2017-11-18 16:03:00,43.0,27.0,30.30,East,101,2.0,4.0,53,0.00,,,0.00,42,weatherlink.com 1.10,2017-11-19 00:03:00,
2017-11-18 16:18:00,42.6,27.0,30.30,East,101,1.0,3.0,55,0.00,,,0.00,35,weatherlink.com 1.10,2017-11-19 00:18:00,
2017-11-18 16:33:00,42.1,27.0,30.30,East,101,2.0,2.0,56,0.00,,,0.00,7,weatherlink.com 1.10,2017-11-19 00:33:00,
2017-11-18 16:48:00,41.5,28.0,30.30,East,101,1.0,1.0,58,0.00,,,0.00,0,weatherlink.com 1.10,2017-11-19 00:48:00,
2017-11-18 17:03:00,40.4,28.0,30.30,North,2,2.0,3.0,61,0.00,,,0.00,0,weatherlink.com 1.10,2017-11-19 01:03:00,
2017-11-18 17:18:00,39.2,28.0,30.30,North,5,4.0,4.0,64,0.00,,,0.00,0,weatherlink.com 1.10,2017-11-19 01:18:00,